N8YZF Weather Reports


Display with metric or nautical units.
time (UTC)temp
F
wind
direction
speed
MPH
gust
MPH
rain 1hr
in
rain 24hr
in
rain mn
in
humidity
%
barometer
mb
20200217005929 21 306 3.0 7.0 0.00 0.04 0.04 60 1015.9
20200217005427 20 290 3.0 6.0 0.00 0.04 0.04 59 1015.9
20200217004906 21 341 4.0 7.0 0.00 0.04 0.04 58 1015.9
20200217004407 21 302 4.0 7.0 0.00 0.04 0.04 59 1015.9
20200217003904 21 313 3.0 5.0 0.00 0.04 0.04 59 1015.8
20200217003405 21 287 3.0 5.0 0.00 0.04 0.04 58 1015.8
20200217002905 21 300 3.0 6.0 0.00 0.04 0.04 58 1015.6
20200217002406 21 315 3.0 6.0 0.00 0.04 0.04 57 1015.6
20200217001904 22 342 3.0 6.0 0.00 0.04 0.04 56 1015.6
20200217001401 22 320 3.0 6.0 0.00 0.04 0.04 56 1015.6
20200217000901 23 338 2.0 6.0 0.00 0.04 0.04 55 1015.6
20200217000337 23 330 3.0 5.0 0.00 0.04 0.04 54 1015.7
20200216235838 24 308 4.0 7.0 0.00 0.04 0.04 53 1015.5
20200216235328 24 309 5.0 9.0 0.00 0.04 0.04 52 1015.5
20200216234828 24 277 5.0 9.0 0.00 0.04 0.04 52 1015.5
20200216234305 24 286 5.0 9.0 0.00 0.04 0.04 52 1015.3
20200216233805 25 339 5.0 9.0 0.00 0.04 0.04 51 1015.3
20200216233304 25 312 5.0 8.0 0.00 0.04 0.04 50 1015.3
20200216232731 26 294 5.0 9.0 0.00 0.04 0.04 49 1015.2
20200216232232 26 269 6.0 8.0 0.00 0.04 0.04 49 1015.3
20200216231732 26 306 6.0 11.0 0.00 0.04 0.04 49 1015.3
20200216231231 26 308 6.0 11.0 0.00 0.04 0.04 48 1015.3
20200216230728 27 278 5.0 11.0 0.00 0.04 0.04 47 1015.3
20200216230226 27 296 6.0 11.0 0.00 0.04 0.04 46 1015.4
20200216225725 28 293 7.0 11.0 0.00 0.04 0.04 45 1015.2
20200216225223 28 323 7.0 11.0 0.00 0.04 0.04 45 1015.2
20200216224725 28 290 7.0 13.0 0.00 0.04 0.04 44 1015.3
20200216224224 28 293 7.0 13.0 0.00 0.04 0.04 44 1015.0
20200216223723 29 312 7.0 12.0 0.00 0.04 0.04 43 1015.0
20200216223220 29 312 7.0 14.0 0.00 0.04 0.04 41 1015.0
20200216222717 29 288 7.0 14.0 0.00 0.04 0.04 40 1014.9
20200216222217 29 323 7.0 13.0 0.00 0.04 0.04 41 1015.0
20200216221718 30 286 8.0 13.0 0.00 0.04 0.04 40 1015.0
20200216221218 30 276 8.0 13.0 0.00 0.04 0.04 40 1014.8
20200216220717 30 291 8.0 16.0 0.00 0.04 0.04 40 1014.9
20200216220214 31 287 8.0 16.0 0.00 0.04 0.04 38 1014.9
20200216215714 31 311 8.0 13.0 0.00 0.04 0.04 40 1014.8
20200216215213 31 296 7.0 13.0 0.00 0.04 0.04 39 1014.8
20200216214714 32 288 7.0 15.0 0.00 0.04 0.04 39 1014.9
20200216214215 32 292 8.0 15.0 0.00 0.04 0.04 39 1014.8
20200216213710 32 296 9.0 15.0 0.00 0.04 0.04 39 1014.8
20200216213208 32 281 8.0 15.0 0.00 0.04 0.04 37 1014.8
20200216212705 32 318 7.0 14.0 0.00 0.04 0.04 38 1014.7
20200216212206 33 308 7.0 14.0 0.00 0.04 0.04 38 1014.7
20200216211706 33 291 8.0 13.0 0.00 0.04 0.04 40 1014.8
20200216211204 33 290 8.0 13.0 0.01 0.04 0.04 39 1014.6
20200216210703 33 269 8.0 15.0 0.01 0.04 0.04 40 1014.6
20200216210201 33 306 8.0 15.0 0.01 0.04 0.04 39 1014.6
20200216205701 34 306 7.0 15.0 0.01 0.04 0.04 39 1014.5
20200216205141 34 309 8.0 14.0 0.01 0.04 0.04 39 1014.5
20200216204638 34 319 8.0 14.0 0.01 0.04 0.04 41 1014.5
20200216204138 34 296 7.0 14.0 0.01 0.04 0.04 43 1014.5
20200216203637 34 259 7.0 12.0 0.01 0.04 0.04 46 1014.5
20200216203138 34 256 9.0 15.0 0.01 0.04 0.04 46 1014.5
20200216202636 34 300 9.0 15.0 0.01 0.04 0.04 46 1014.5
20200216202134 34 281 8.0 14.0 0.01 0.04 0.04 46 1014.5
20200216201631 34 315 7.0 14.0 0.01 0.04 0.04 45 1014.5
20200216201130 35 269 6.0 14.0 0.00 0.03 0.04 47 1014.5
20200216200629 35 288 7.0 15.0 0.00 0.03 0.03 48 1014.5
20200216200131 34 284 8.0 18.0 0.00 0.03 0.03 49 1014.5
20200216195630 34 246 8.0 18.0 0.00 0.03 0.03 50 1014.5
20200216195128 34 305 8.0 16.0 0.00 0.03 0.03 50 1014.5
20200216194628 34 298 8.0 16.0 0.00 0.03 0.03 53 1014.5
20200216194128 34 334 7.0 13.0 0.00 0.03 0.03 54 1014.5
20200216193629 34 271 7.0 13.0 0.00 0.03 0.03 54 1014.5
20200216193127 34 284 8.0 12.0 0.01 0.03 0.03 52 1014.5
20200216192624 34 279 9.0 16.0 0.01 0.03 0.03 54 1014.5
20200216192122 34 296 9.0 16.0 0.01 0.03 0.03 53 1014.5
20200216191622 34 297 8.0 13.0 0.01 0.03 0.03 54 1014.5
20200216191122 34 314 8.0 14.0 0.01 0.03 0.03 54 1014.5
20200216190622 34 314 8.0 14.0 0.01 0.03 0.03 55 1014.5
20200216190120 34 342 7.0 12.0 0.01 0.03 0.03 54 1014.5
20200216185618 34 263 7.0 12.0 0.01 0.03 0.03 55 1014.5
20200216185117 34 311 7.0 12.0 0.01 0.03 0.03 55 1014.5
20200216184615 34 300 6.0 12.0 0.01 0.03 0.03 55 1014.4
20200216184116 34 305 6.0 11.0 0.01 0.03 0.03 56 1014.5
20200216183615 34 261 6.0 11.0 0.01 0.03 0.03 56 1014.5
20200216183116 34 307 6.0 9.0 0.00 0.02 0.02 58 1014.4
20200216182615 33 299 5.0 10.0 0.00 0.02 0.02 60 1014.9
20200216182117 33 262 7.0 14.0 0.00 0.02 0.02 60 1014.8
20200216181616 33 220 7.0 14.0 0.00 0.02 0.02 59 1014.8
20200216181114 33 288 6.0 12.0 0.00 0.02 0.02 60 1014.9
20200216180607 32 257 6.0 12.0 0.01 0.02 0.02 60 1014.9
20200216180106 32 281 7.0 13.0 0.01 0.02 0.02 60 1014.9
20200216175605 32 257 9.0 16.0 0.01 0.02 0.02 59 1015.1
20200216175103 32 256 9.0 16.0 0.01 0.02 0.02 59 1015.1
20200216174558 32 261 7.0 15.0 0.01 0.02 0.02 58 1015.1
20200216174042 33 294 6.0 13.0 0.01 0.02 0.02 60 1015.4
20200216173541 32 275 8.0 13.0 0.01 0.02 0.02 61 1015.4
20200216173036 32 293 8.0 14.0 0.01 0.02 0.02 61 1015.3
20200216172534 32 265 7.0 14.0 0.01 0.02 0.02 63 1015.3
20200216172032 32 318 6.0 11.0 0.01 0.02 0.02 65 1015.3
20200216171531 32 326 6.0 11.0 0.01 0.02 0.02 66 1015.3
20200216171031 32 317 6.0 9.0 0.01 0.02 0.02 67 1015.4
20200216170531 32 323 6.0 11.0 0.00 0.01 0.01 68 1015.4
20200216170030 32 332 7.0 13.0 0.00 0.01 0.01 66 1015.3
20200216165527 32 304 7.0 13.0 0.00 0.01 0.01 67 1015.2
20200216165026 31 313 6.0 13.0 0.00 0.01 0.01 67 1015.1
20200216164525 31 289 6.0 11.0 0.00 0.01 0.01 67 1015.1
20200216164025 31 340 6.0 12.0 0.00 0.01 0.01 69 1015.2
20200216163524 31 315 7.0 12.0 0.00 0.01 0.01 68 1015.2
20200216163024 30 291 7.0 13.0 0.00 0.01 0.01 68 1015.2
20200216162520 30 263 8.0 13.0 0.00 0.01 0.01 69 1014.9
20200216162018 30 288 8.0 14.0 0.00 0.01 0.01 69 1014.9
20200216161519 30 273 7.0 14.0 0.00 0.01 0.01 69 1014.9
20200216161017 30 300 7.0 12.0 0.00 0.01 0.01 70 1014.8
20200216160517 30 300 7.0 14.0 0.00 0.01 0.01 71 1014.8
20200216160017 30 291 7.0 15.0 0.00 0.01 0.01 71 1014.8
20200216155516 30 283 6.0 15.0 0.00 0.01 0.01 72 1014.8
20200216155013 29 307 5.0 10.0 0.01 0.01 0.01 73 1014.8
20200216154513 29 280 5.0 9.0 0.01 0.01 0.01 74 1014.8
20200216154012 29 300 6.0 12.0 0.01 0.01 0.01 74 1014.8
20200216153514 29 294 7.0 12.0 0.01 0.01 0.01 73 1014.8
20200216153012 29 279 6.0 11.0 0.01 0.01 0.01 74 1014.8
20200216152510 30 267 5.0 10.0 0.01 0.01 0.01 74 1014.8
20200216152008 30 292 4.0 9.0 0.01 0.01 0.01 74 1014.8
20200216151506 30 298 5.0 9.0 0.01 0.01 0.01 74 1014.8
20200216151004 30 334 5.0 8.0 0.01 0.01 0.01 75 1014.7
20200216150500 30 301 5.0 11.0 0.01 0.01 0.01 76 1014.7
20200216145952 29 284 5.0 11.0 0.01 0.01 0.01 76 1014.8
20200216145450 29 309 4.0 8.0 0.01 0.01 0.01 77 1014.8
20200216144949 29 323 3.0 7.0 0.00 0.00 0.00 78 1014.8
20200216144448 29 328 3.0 6.0 0.00 0.00 0.00 80 1014.8
20200216143939 28 340 3.0 6.0 0.00 0.00 0.00 80 1014.7
20200216143430 28 292 3.0 8.0 0.00 0.00 0.00 82 1014.7
20200216142930 28 264 4.0 8.0 0.00 0.00 0.00 82 1014.7
20200216142429 28 285 4.0 7.0 0.00 0.00 0.00 84 1014.6
20200216141930 27 285 4.0 7.0 0.00 0.00 0.00 85 1014.6
20200216141427 27 296 3.0 7.0 0.00 0.00 0.00 87 1014.5
20200216140925 27 292 3.0 6.0 0.00 0.00 0.00 88 1014.5
20200216140423 26 288 4.0 7.0 0.00 0.00 0.00 89 1014.5
20200216135915 26 284 3.0 7.0 0.00 0.00 0.00 91 1014.1
20200216135415 25 281 2.0 5.0 0.00 0.00 0.00 92 1014.1
20200216134908 25 271 1.0 4.0 0.00 0.00 0.00 93 1014.1
20200216134403 24 263 2.0 4.0 0.00 0.00 0.00 93 1013.9
20200216133904 24 274 2.0 4.0 0.00 0.00 0.00 92 1013.9
20200216133401 24 270 1.0 4.0 0.00 0.00 0.00 92 1013.9
20200216132835 24 262 1.0 3.0 0.00 0.00 0.00 92 1013.8
20200216132331 24 254 1.0 3.0 0.00 0.00 0.00 92 1013.8
20200216131826 24 243 2.0 4.0 0.00 0.00 0.00 92 1013.8
20200216131326 25 246 2.0 4.0 0.00 0.00 0.00 92 1013.5
20200216130824 25 260 2.0 5.0 0.00 0.00 0.00 92 1013.5
20200216130324 25 265 2.0 5.0 0.00 0.00 0.00 92 1013.5
20200216125825 25 242 3.0 5.0 0.00 0.00 0.00 92 1013.4
20200216125312 25 237 3.0 5.0 0.00 0.00 0.00 92 1013.4
20200216124801 25 250 3.0 5.0 0.00 0.00 0.00 92 1013.4
20200216124239 26 249 3.0 5.0 0.00 0.00 0.00 92 1013.5
20200216123737 26 255 3.0 5.0 0.00 0.00 0.00 92 1013.7
20200216123235 26 246 3.0 5.0 0.00 0.00 0.00 92 1013.7
20200216122727 26 254 3.0 8.0 0.00 0.00 0.00 93 1013.7
20200216122227 26 215 4.0 8.0 0.00 0.00 0.00 93 1013.7
20200216121724 26 240 4.0 7.0 0.00 0.00 0.00 93 1013.7
20200216121222 26 235 4.0 7.0 0.00 0.00 0.00 93 1013.5
20200216120722 26 252 3.0 6.0 0.00 0.00 0.00 93 1013.5
20200216120222 26 234 3.0 6.0 0.00 0.00 0.00 93 1013.5
20200216115659 26 230 3.0 6.0 0.00 0.00 0.00 93 1013.3
20200216115147 26 215 3.0 7.0 0.00 0.00 0.00 93 1013.3
20200216114648 26 238 3.0 7.0 0.00 0.00 0.00 93 1013.3
20200216114139 26 230 2.0 6.0 0.00 0.00 0.00 93 1013.4
20200216113639 26 224 3.0 6.0 0.00 0.00 0.00 93 1013.4
20200216113137 26 242 3.0 6.0 0.00 0.00 0.00 93 1013.4
20200216112635 26 242 2.0 4.0 0.00 0.00 0.00 93 1013.2
20200216112135 26 252 2.0 6.0 0.00 0.00 0.00 93 1013.2
20200216111632 26 257 3.0 6.0 0.00 0.00 0.00 93 1013.2
20200216111127 26 233 3.0 6.0 0.00 0.00 0.00 93 1013.2
20200216110620 26 253 3.0 6.0 0.00 0.00 0.00 93 1013.2
20200216110120 26 244 3.0 6.0 0.00 0.00 0.00 93 1013.2
20200216105613 26 230 3.0 6.0 0.00 0.00 0.00 93 1013.2
20200216105113 26 228 3.0 5.0 0.00 0.00 0.00 93 1013.2
20200216104614 26 223 3.0 6.0 0.00 0.00 0.00 93 1013.2
20200216104113 26 218 4.0 8.0 0.00 0.00 0.00 93 1013.1
20200216103612 26 227 4.0 8.0 0.00 0.00 0.00 93 1013.1
20200216103109 26 230 4.0 7.0 0.00 0.00 0.00 93 1013.1
20200216102608 26 238 4.0 6.0 0.00 0.00 0.00 93 1013.0
20200216102107 26 202 3.0 6.0 0.00 0.00 0.00 93 1013.0
20200216101559 26 205 4.0 7.0 0.00 0.00 0.00 93 1013.0
20200216101036 26 237 4.0 7.0 0.00 0.00 0.00 93 1012.8
20200216100535 26 223 4.0 6.0 0.00 0.00 0.00 93 1012.8
20200216100030 26 232 4.0 6.0 0.00 0.00 0.00 93 1012.8
20200216095527 26 227 4.0 9.0 0.00 0.00 0.00 93 1012.7
20200216095027 26 199 5.0 10.0 0.00 0.00 0.00 93 1012.7
20200216094525 26 202 5.0 10.0 0.00 0.00 0.00 92 1012.7
20200216094026 26 216 4.0 7.0 0.00 0.00 0.00 92 1012.9
20200216093525 26 214 5.0 10.0 0.00 0.00 0.00 93 1012.9
20200216093022 26 245 5.0 10.0 0.00 0.00 0.00 93 1012.9
20200216092521 26 226 5.0 8.0 0.00 0.00 0.00 93 1012.8
20200216092020 26 205 4.0 8.0 0.00 0.00 0.00 93 1012.8
20200216091518 26 228 3.0 7.0 0.00 0.00 0.00 93 1012.8
20200216091019 26 227 3.0 8.0 0.00 0.00 0.00 93 1012.8
20200216090519 26 236 4.0 8.0 0.00 0.00 0.00 93 1012.8
20200216090018 26 219 4.0 8.0 0.00 0.00 0.00 93 1012.8
20200216085514 25 201 4.0 8.0 0.00 0.00 0.00 93 1012.6
20200216085016 25 236 3.0 6.0 0.00 0.00 0.00 92 1012.6
20200216084509 25 216 3.0 5.0 0.00 0.00 0.00 92 1012.6
20200216084008 26 209 3.0 5.0 0.00 0.00 0.00 92 1012.6
20200216083508 26 223 3.0 5.0 0.00 0.00 0.00 92 1012.6
20200216083005 26 211 3.0 5.0 0.00 0.00 0.00 92 1012.6
20200216082456 26 240 3.0 5.0 0.00 0.00 0.00 92 1012.7
20200216081948 26 205 3.0 5.0 0.00 0.00 0.00 92 1012.7
20200216081446 26 234 3.0 5.0 0.00 0.00 0.00 91 1012.8
20200216080925 26 213 3.0 6.0 0.00 0.00 0.00 91 1012.8
20200216080427 26 211 3.0 6.0 0.00 0.00 0.00 91 1012.8
20200216075915 26 220 3.0 5.0 0.00 0.00 0.00 91 1012.7
20200216075413 27 225 3.0 5.0 0.00 0.00 0.00 91 1012.8
20200216074914 27 223 3.0 6.0 0.00 0.00 0.00 91 1012.8
20200216074411 27 232 3.0 6.0 0.00 0.00 0.00 90 1012.9
20200216073907 27 269 4.0 7.0 0.00 0.00 0.00 90 1012.9
20200216073405 27 233 4.0 8.0 0.00 0.00 0.00 90 1012.9
20200216072903 27 246 4.0 10.0 0.00 0.00 0.00 90 1012.8
20200216072358 27 266 4.0 10.0 0.00 0.00 0.00 89 1012.8
20200216071843 28 235 5.0 9.0 0.00 0.00 0.00 89 1012.8
20200216071333 28 234 5.0 9.0 0.00 0.00 0.00 89 1012.9
20200216070832 28 271 5.0 11.0 0.00 0.00 0.00 89 1013.0
20200216070330 28 274 6.0 11.0 0.00 0.00 0.00 89 1013.0
20200216065829 28 246 5.0 11.0 0.00 0.00 0.00 88 1012.9
20200216065327 28 240 4.0 8.0 0.00 0.00 0.00 88 1012.9
20200216064828 29 261 4.0 7.0 0.00 0.00 0.00 88 1012.9
20200216064329 29 279 4.0 10.0 0.00 0.00 0.00 88 1013.0
20200216063827 29 256 6.0 12.0 0.00 0.00 0.00 87 1013.0
20200216063324 29 231 5.0 12.0 0.00 0.00 0.00 87 1013.0
20200216062823 29 242 4.0 10.0 0.00 0.00 0.00 87 1013.0
20200216062323 29 250 4.0 12.0 0.00 0.00 0.00 87 1013.0
20200216061823 29 254 5.0 12.0 0.00 0.00 0.00 87 1013.0
20200216061322 29 239 5.0 10.0 0.00 0.00 0.00 87 1013.0
20200216060820 29 240 6.0 11.0 0.00 0.00 0.00 87 1013.0
20200216060319 29 219 6.0 11.0 0.00 0.00 0.00 87 1013.0
20200216055815 29 244 6.0 12.0 0.00 0.00 0.00 87 1013.1
20200216055315 29 240 6.0 12.0 0.00 0.00 0.00 87 1013.1
20200216054815 30 232 6.0 12.0 0.00 0.00 0.00 87 1013.1
20200216054316 29 243 5.0 8.0 0.00 0.00 0.00 87 1013.1
20200216053817 29 279 5.0 8.0 0.00 0.00 0.00 87 1013.1
20200216053310 29 273 6.0 8.0 0.00 0.00 0.00 87 1013.1
20200216052808 29 252 6.0 11.0 0.00 0.00 0.00 87 1013.1
20200216052302 29 225 5.0 11.0 0.00 0.00 0.00 87 1013.1
20200216051734 29 232 6.0 11.0 0.00 0.00 0.00 87 1013.1
20200216051239 29 261 5.0 11.0 0.00 0.00 0.00 87 1013.0
20200216050734 29 259 4.0 11.0 0.00 0.00 0.00 87 1013.0
20200216050232 29 272 6.0 12.0 0.00 0.00 0.00 87 1013.0
20200216045728 29 255 5.0 12.0 0.00 0.00 0.00 87 1012.9
20200216045228 29 230 4.0 10.0 0.00 0.00 0.00 87 1012.9
20200216044724 29 242 4.0 10.0 0.00 0.00 0.00 87 1012.9
20200216044218 29 230 5.0 8.0 0.00 0.00 0.00 87 1012.6
20200216043717 29 218 6.0 11.0 0.00 0.00 0.00 87 1012.6
20200216043216 29 222 6.0 11.0 0.00 0.00 0.00 87 1012.6
20200216042713 29 245 5.0 11.0 0.00 0.00 0.00 87 1012.6
20200216042211 29 231 5.0 10.0 0.00 0.00 0.00 87 1012.6
20200216041707 29 219 5.0 11.0 0.00 0.00 0.00 87 1012.6
20200216041207 29 256 5.0 11.0 0.00 0.00 0.00 87 1012.5
20200216040659 29 234 5.0 8.0 0.00 0.00 0.00 87 1012.5
20200216040201 29 266 5.0 10.0 0.00 0.00 0.00 87 1012.6
20200216035657 29 259 5.0 10.0 0.00 0.00 0.00 87 1012.4
20200216035139 29 260 5.0 10.0 0.00 0.00 0.00 87 1012.4
20200216034640 29 239 4.0 8.0 0.00 0.00 0.00 87 1012.4
20200216034139 29 266 5.0 8.0 0.00 0.00 0.00 87 1012.6
20200216033638 29 228 5.0 10.0 0.00 0.00 0.00 87 1012.6
20200216033138 29 257 4.0 10.0 0.00 0.00 0.00 87 1012.6
20200216032636 29 262 5.0 12.0 0.00 0.00 0.00 87 1012.3
20200216032133 29 284 6.0 13.0 0.00 0.00 0.00 87 1012.3
20200216031632 29 234 6.0 13.0 0.00 0.00 0.00 87 1012.3
20200216031134 29 258 6.0 12.0 0.00 0.00 0.00 87 1012.3
20200216030633 29 226 6.0 12.0 0.00 0.00 0.00 87 1012.3
20200216030135 29 226 6.0 13.0 0.00 0.00 0.00 87 1012.3
20200216025631 29 250 7.0 13.0 0.00 0.00 0.00 87 1012.2
20200216025129 29 212 6.0 13.0 0.00 0.00 0.00 87 1012.2
20200216024631 29 223 5.0 11.0 0.00 0.00 0.00 87 1012.2
20200216024129 29 221 5.0 13.0 0.00 0.00 0.00 87 1012.0
20200216023627 29 254 5.0 13.0 0.00 0.00 0.00 87 1012.0
20200216023127 29 229 6.0 15.0 0.00 0.00 0.00 87 1012.0
20200216022624 29 245 7.0 15.0 0.00 0.00 0.00 87 1012.1
20200216022123 29 258 5.0 13.0 0.00 0.00 0.00 88 1012.1
20200216021622 29 261 4.0 10.0 0.00 0.00 0.00 88 1012.1
20200216021124 29 275 5.0 10.0 0.00 0.00 0.00 88 1012.0
20200216020626 29 241 6.0 12.0 0.00 0.00 0.00 88 1012.0
20200216020119 29 215 7.0 13.0 0.00 0.00 0.00 88 1012.0
20200216015616 29 221 7.0 13.0 0.00 0.00 0.00 88 1012.0
20200216015116 29 236 7.0 13.0 0.00 0.00 0.00 88 1012.0
20200216014615 29 235 6.0 13.0 0.00 0.00 0.00 88 1012.0
20200216014117 29 277 5.0 13.0 0.00 0.00 0.00 88 1011.8
20200216013615 29 236 6.0 15.0 0.00 0.00 0.00 88 1011.8
20200216013117 29 233 7.0 15.0 0.00 0.00 0.00 88 1011.8
20200216012607 29 246 7.0 15.0 0.00 0.00 0.00 88 1011.7
20200216012103 29 243 7.0 15.0 0.00 0.00 0.00 89 1011.7
20200216011603 29 244 7.0 14.0 0.00 0.00 0.00 89 1011.7
20200216011102 29 221 7.0 14.0 0.00 0.00 0.00 89 1011.7
20200216010600 29 219 8.0 18.0 0.00 0.00 0.00 89 1011.7